Regional Weather Roundup
Issued by NWS

Home | Current Version | Previous Version | Graphics & Text | Print | Product List | Glossary Off
Versions: 1 2 3 4 5 6 7 8 9 10 11 12 13 14 15 16 17 18 19 20 21 22 23 24 25 26 27 28 29 30 31 32 33 34 35 36 37 38 39 40 41 42 43 44 45 46 47 48 49 50

000
ASUS43 KLSX 271207
RWRMO

WEATHER SUMMARY FOR MISSOURI
NATIONAL WEATHER SERVICE SPRINGFIELD MO
600 AM CST TUE JAN 27 2015

NOTE: "FAIR" INDICATES FEW OR NO CLOUDS BELOW 12,000 FEET WITH NO
       SIGNIFICANT WEATHER AND/OR OBSTRUCTIONS TO VISIBILITY.
       CURRENT SKY AND/OR WEATHER CONDITIONS ARE NOT AVAILABLE FOR
       CHILLICOTHE AND FARMINGTON.

MOZ001>031-035>038-043-044-053-054-271300-
...NORTHERN AND WESTERN MISSOURI...

CITY           SKY/WX    TMP DP  RH WIND       PRES   REMARKS
KANSAS CTY INT CLEAR     35  30  82 NW5       30.10R
6HR MIN TEMP:  30; 6HR MAX TEMP:  42;

KANSAS C DTWN  CLEAR     32  29  88 CALM      30.10S
6HR MIN TEMP:  31; 6HR MAX TEMP:  39;

LEE`S SUMMIT   CLEAR     37  31  78 N5        30.10R
6HR MIN TEMP:  36; 6HR MAX TEMP:  46;

ST JOSEPH      CLEAR     27  26  96 SE3       30.11R
6HR MIN TEMP:  26; 6HR MAX TEMP:  35;

CHILLICOTHE      N/A     32  28  85 CALM      30.10R
6HR MIN TEMP:  30; 6HR MAX TEMP:  44;

KIRKSVILLE     CLEAR     32  29  88 NW6       30.07R WCI  26
6HR MIN TEMP:  32; 6HR MAX TEMP:  38;


$$
MOZ066>068-077>081-088>096-101>105-271300-
...SOUTHWEST MISSOURI...

CITY           SKY/WX    TMP DP  RH WIND       PRES   REMARKS
SPRINGFIELD    CLEAR     37  31  78 NW6       30.07R
6HR MIN TEMP:  34; 6HR MAX TEMP:  46;

JOPLIN         CLEAR     38  31  76 N3        30.10R
6HR MIN TEMP:  34; 6HR MAX TEMP:  45;


$$
MOZ032>034-039>042-045>050-055>058-069>072-271300-
...CENTRAL MISSOURI...

CITY           SKY/WX    TMP DP  RH WIND       PRES   REMARKS
COLUMBIA       CLEAR     33  31  92 NW5       30.07R WCI  29
6HR MIN TEMP:  32; 6HR MAX TEMP:  41;

JEFFERSON CITY CLEAR     29  28  96 NW3       30.09R
6HR MIN TEMP:  29; 6HR MAX TEMP:  36;

ROLLA          CLEAR     35  31  85 NW8       30.04R WCI  29
6HR MIN TEMP:  34; 6HR MAX TEMP:  43;

SEDALIA        CLEAR     35  30  82 NW7       30.10R WCI  29
6HR MIN TEMP:  35; 6HR MAX TEMP:  43;

WHITEMAN AFB   CLEAR     33  30  89 N6        30.09R WCI  27
WARRENSBURG    CLEAR     32  30  93 NW6       30.10R WCI  26
OSAGE BEACH    CLEAR     37  30  75 N5        30.08R

$$
MOZ051-052-059>065-271300-
...EAST CENTRAL MISSOURI...

CITY           SKY/WX    TMP DP  RH WIND       PRES   REMARKS
ST LOUIS INTL  PTCLDY    36  30  80 NW6       30.04R
6HR MIN TEMP:  35; 6HR MAX TEMP:  38;

SPIRIT OF STL  CLOUDY    37  33  85 NW7       30.04R
6HR MIN TEMP:  32; 6HR MAX TEMP:  39;

ST CHARLES     CLEAR     36  33  89 W6        30.03R
6HR MIN TEMP:  32; 6HR MAX TEMP:  37;


$$
MOZ072>076-082>087-097>100-106>115-271300-
...SOUTH CENTRAL AND SOUTHEAST MISSOURI...

CITY           SKY/WX    TMP DP  RH WIND       PRES   REMARKS
CAPE GIRARDEAU CLEAR     31  29  92 W3        30.01R
6HR MIN TEMP:  29; 6HR MAX TEMP:  32;

FARMINGTON     MOCLDY    39  34  81 MISG      30.04R
6HR MIN TEMP:  37; 6HR MAX TEMP:  43;

POPLAR BLUFF   MOCLDY    35  30  82 NW7       30.02R WCI  29
6HR MIN TEMP:  29; 6HR MAX TEMP:  35;

WEST PLAINS    CLEAR     40  32  73 NW6       30.05R
6HR MIN TEMP:  40; 6HR MAX TEMP:  46;


$$


USA.gov is the U.S. government's official web portal to all federal, state and local government web resources and services.